Wetbulb
57.34 57.66 58.25 58.12 57.48 58.34 57.33 57.89 56.47 57.50 57.32 59.65 61.71 62.38 64.93 68.66 69.82 70.56 71.54 72.38 73.43 74.09 74.53 75.09 75.32 76.09 76.60 76.71 77.06 76.71 75.35 73.78 71.23 71.09 70.87 70.36 69.09 68.22 67.98 67.53 67.36 68.43 67.85 66.71
54.46 57.00 56.48 56.39 57.70 57.67 57.91 57.58 59.44 59.76 58.29 62.30 63.96 64.81 66.17 69.18 70.50 70.33 71.44 72.55 73.55 74.26 74.63 75.10 75.65 75.77 75.83 75.38 74.66 74.25 71.72 69.50 69.68 69.59 67.78 66.97 67.01 66.30 66.63 65.87 66.25 66.25 65.93 65.12
52.00 55.14 55.85 52.89 56.06 56.80 57.85 59.15 60.22 57.54 60.31 62.66 62.89 64.43 66.67 69.25 70.51 70.86 71.99 73.16 73.43 74.20 74.85 75.41 75.38 75.30 73.59 73.01 72.60 70.15 68.91 68.35 68.20 67.83 66.07 67.11 67.09 67.11 66.17 65.67 65.54 64.68 64.78 66.41
52.17 54.57 48.97 56.55 60.31 59.40 57.88 59.10 61.59 62.09 62.84 63.46 64.35 66.97 68.23 70.29 71.14 72.25 73.02 73.29 74.06 74.79 75.02 75.30 74.75 73.02 71.97 71.01 70.16 68.92 68.16 68.30 69.20 69.00 69.05 69.39 68.37 67.40 67.35 66.52 66.10 65.69 64.40 64.99
50.77 51.30 54.94 56.64 58.96 58.15 57.12 57.54 61.39 62.67 64.05 63.66 65.07 66.58 68.56 71.84 72.99 73.71 73.99 74.47 74.69 75.47 75.07 74.07 72.30 71.10 70.09 69.49 69.38 68.71 68.20 68.57 68.59 68.96 68.75 68.55 67.76 66.94 66.94 66.49 65.83 65.63 65.77 65.92
52.27 49.52 49.31 57.27 59.81 61.41 60.59 55.00 62.42 63.78 65.35 67.07 69.01 64.57 68.26 72.93 73.97 73.94 74.60 75.02 74.67 74.79 73.76 71.91 70.73 69.95 69.19 68.66 68.50 67.97 67.98 67.91 68.68 69.16 68.80 67.49 67.11 66.56 66.60 66.30 65.78 65.86 65.94 66.09
51.04 50.80 54.02 60.09 61.11 61.95 54.39 56.41 62.18 64.22 66.30 68.58 67.58 65.75 72.26 73.94 73.81 74.35 74.48 74.47 74.76 72.83 71.28 70.80 70.21 69.82 68.65 68.21 67.55 68.36 68.22 68.22 68.37 68.41 67.81 67.52 67.14 66.72 66.45 65.82 65.58 64.85 63.88 63.90
51.95 50.74 49.72 61.04 61.02 58.07 61.55 64.63 64.61 65.00 66.80 68.55 69.70 73.23 72.99 73.72 73.58 74.25 74.28 73.15 71.84 71.08 70.80 70.42 70.37 69.92 68.28 67.40 68.35 68.48 68.22 67.79 67.72 67.51 66.80 66.65 66.87 66.05 65.78 64.79 63.85 63.83 63.15 62.01
53.48 53.84 61.77 62.92 62.23 63.45 63.54 64.57 66.75 67.87 69.51 70.33 71.76 72.58 73.22 73.07 73.74 73.88 72.85 70.76 71.22 70.70 69.92 69.74 70.45 70.05 68.57 68.03 68.35 67.96 67.77 67.40 67.14 67.42 67.40 67.50 65.70 64.47 62.24 62.93 61.49 61.46 59.94 59.55
55.92 58.08 59.08 61.30 63.47 63.85 64.45 64.44 68.60 69.61 71.11 71.24 71.91 73.06 73.12 73.34 73.37 72.57 70.62 70.11 70.45 69.71 68.97 68.98 70.68 70.66 69.99 69.28 68.80 67.91 67.53 67.15 67.33 67.22 66.93 65.73 62.63 61.58 60.91 60.35 59.39 58.60 58.10 58.15
57.38 58.84 60.15 60.59 62.72 65.06 64.70 65.04 65.73 70.41 71.79 71.86 72.83 73.03 73.31 73.01 72.88 71.24 70.05 69.87 69.76 69.10 69.20 69.81 70.95 70.95 70.33 69.57 69.02 67.93 67.57 67.33 67.01 66.24 66.83 63.76 63.39 60.97 60.69 61.10 57.20 58.45 58.01 58.42
54.80 60.27 64.77 63.87 63.06 66.08 66.05 66.65 68.03 70.91 71.56 72.84 73.50 73.43 74.02 73.86 73.04 71.38 69.71 69.79 69.34 69.64 70.10 70.39 71.07 70.55 70.36 69.31 68.23 67.30 66.71 66.78 66.47 66.38 65.68 62.20 60.47 59.32 48.63 49.15 47.16 46.04 47.90 53.10
61.56 65.24 64.36 61.61 62.68 64.24 66.76 68.91 69.28 71.12 72.58 72.41 73.91 74.28 74.42 73.45 72.91 68.63 70.36 70.01 69.31 70.19 70.58 71.01 70.98 69.73 69.73 68.12 67.77 67.36 66.92 67.34 66.59 64.91 65.60 62.81 61.51 60.26 57.47 52.53 46.39 44.53 45.48 45.47
65.02 65.01 64.31 65.92 64.49 66.09 67.08 67.77 68.18 72.05 73.21 73.58 74.58 75.31 74.21 72.52 70.20 70.17 70.34 70.07 70.31 70.37 70.71 71.12 70.79 69.22 69.35 68.30 67.85 67.72 68.05 59.91 67.35 66.89 66.02 64.18 62.54 62.16 61.58 59.53 57.76 57.29 47.82 51.84
64.70 66.12 66.03 67.88 68.66 67.55 67.85 71.16 70.42 71.41 72.50 73.25 74.52 74.08 74.01 72.58 70.71 71.10 70.70 70.22 70.45 70.37 70.32 70.92 70.85 69.49 69.16 68.74 68.00 67.78 67.87 67.22 67.96 67.52 66.52 64.11 64.08 62.95 62.41 61.81 60.28 58.38 57.96 50.45
63.49 64.92 66.55 66.95 68.57 69.04 69.45 71.19 71.04 71.36 72.38 72.92 73.92 73.93 73.26 72.41 72.28 71.08 71.13 70.95 70.10 69.43 70.95 71.04 70.68 70.83 69.67 68.80 68.22 67.74 68.42 64.55 65.57 67.84 66.53 65.56 64.38 63.65 62.33 61.82 60.93 58.42 57.37 58.10
62.62 66.46 67.06 67.22 68.26 69.88 70.54 71.75 72.12 72.43 72.91 73.23 72.90 74.14 73.13 71.26 70.36 69.92 70.49 70.36 70.71 70.99 71.49 71.22 71.20 72.32 70.54 69.52 68.36 68.11 68.64 68.51 65.85 67.89 67.21 65.56 65.23 64.49 63.22 61.96 61.40 58.80 57.20 56.01
67.28 68.50 70.54 70.36 70.15 70.96 71.29 72.25 72.46 72.89 72.55 73.16 73.55 71.09 71.77 70.61 69.81 70.90 70.68 70.78 70.55 70.45 71.24 71.89 72.03 71.50 70.99 70.65 70.21 69.55 68.78 68.52 67.81 67.81 67.39 66.52 64.70 63.56 62.62 61.56 61.10 59.42 57.17 56.21
70.20 70.17 70.71 71.44 72.08 72.33 72.47 72.27 72.77 73.16 73.13 73.15 73.01 71.96 72.17 70.70 72.12 71.71 71.06 70.46 70.28 70.04 70.04 71.35 65.62 68.65 69.68 69.14 68.86 69.21 68.71 68.30 67.77 67.02 65.83 59.70 61.12 60.20 59.27 59.55 60.37 58.82 57.38 57.38
69.67 70.67 71.10 71.48 71.95 71.97 71.84 72.70 72.88 72.75 73.00 72.86 72.12 71.24 71.69 71.91 71.97 71.48 71.33 70.35 70.25 69.88 71.23 71.00 69.67 70.04 69.23 68.76 65.40 68.68 68.17 67.30 66.10 64.17 60.25 58.84 58.31 58.47 58.76 53.86 58.41 57.87 57.74 57.66
67.56 70.42 70.60 70.67 70.80 71.86 72.13 72.40 72.18 71.64 72.28 72.61 71.90 71.55 72.21 71.69 72.05 71.93 70.33 67.64 69.94 69.32 70.28 65.13 69.26 68.80 69.39 67.19 66.10 67.55 66.50 65.26 63.27 60.12 58.25 57.67 57.74 57.71 57.74 57.53 57.16 57.57 57.44 58.00
66.58 67.82 70.04 70.54 70.55 70.49 71.39 71.81 71.95 71.81 71.66 71.78 72.16 72.35 71.45 71.38 71.40 70.03 71.27 70.52 69.72 60.35 64.23 67.33 67.58 65.37 66.66 63.07 66.84 66.12 64.90 63.53 61.27 59.43 58.17 57.86 57.87 57.54 57.37 57.62 57.53 57.71 57.75 58.08
67.28 67.78 67.54 69.91 70.68 70.53 71.25 71.14 71.50 71.69 70.73 71.55 71.13 71.18 70.65 69.93 70.09 69.30 67.91 70.06 68.56 61.67 65.76 64.64 61.35 59.17 58.85 65.13 66.18 65.20 63.77 62.12 60.58 59.06 58.46 58.42 58.17 57.91 57.65 57.82 57.86 58.03 57.93 58.54
64.68 67.05 68.80 70.03 71.00 70.77 69.66 70.63 70.84 70.23 70.82 70.96 71.00 71.23 70.85 69.60 69.62 71.24 71.13 62.67 59.32 58.93 66.10 63.42 57.52 56.12 58.13 66.28 65.04 63.74 62.71 61.67 60.47 59.12 58.97 52.23 58.59 58.51 58.54 58.38 57.89 58.52 58.71 56.80
65.74 67.14 67.59 68.70 68.38 68.30 69.69 70.19 70.00 68.64 70.39 71.51 71.33 71.55 71.45 71.06 69.41 69.15 64.95 65.21 56.18 61.30 63.64 53.76 54.29 54.11 63.10 63.09 63.20 63.34 62.41 61.08 59.78 59.37 59.13 58.62 58.58 58.42 58.60 58.45 58.74 58.70 59.29 59.50
63.42 63.97 66.24 66.47 66.94 67.49 67.62 69.34 68.55 68.71 69.23 68.95 69.67 71.25 70.57 69.81 67.78 61.94 66.16 61.88 60.22 59.13 61.39 56.46 57.24 59.50 63.64 62.63 62.15 61.56 61.02 60.14 59.28 59.08 58.25 58.71 59.06 58.55 58.40 58.64 58.69 58.71 58.98 59.18
62.46 58.15 64.52 65.43 66.84 67.74 67.17 65.62 65.04 67.14 68.01 69.06 67.90 68.38 68.84 67.98 64.57 62.95 60.39 62.18 63.61 64.80 63.43 62.92 61.19 59.40 60.92 60.59 59.39 60.08 59.99 59.82 55.62 58.79 58.24 58.14 58.44 58.33 58.28 58.52 58.95 59.22 59.39 58.95
MSLP
996.81 996.51 996.63 997.09 997.19 997.66 997.74 997.34 996.64 996.79 997.56 998.87 999.70 1000.33 1001.42 1002.66 1003.84 1004.90 1005.82 1006.70 1007.73 1008.74 1009.93 1010.75 1011.39 1011.87 1012.32 1012.68 1013.00 1013.45 1014.08 1014.93 1015.88 1016.38 1016.73 1017.13 1017.46 1017.64 1017.77 1017.80 1017.76 1017.61 1017.61 1017.66
996.95 997.02 997.22 996.71 996.73 996.98 997.34 997.40 997.20 996.48 996.70 998.10 999.43 1000.12 1001.21 1002.52 1003.70 1004.70 1005.72 1006.85 1008.11 1009.28 1010.23 1011.01 1011.67 1012.32 1012.95 1013.42 1013.91 1014.43 1015.19 1016.03 1016.66 1017.03 1017.58 1017.89 1018.05 1018.28 1018.35 1018.42 1018.36 1018.24 1018.37 1018.30
996.59 997.27 997.03 996.63 996.41 996.38 996.66 997.00 996.96 996.10 996.27 997.46 998.79 999.91 1000.95 1002.18 1003.34 1004.41 1005.66 1007.10 1008.44 1009.44 1010.36 1011.28 1012.04 1012.84 1013.53 1014.13 1014.69 1015.43 1016.10 1016.75 1017.25 1017.83 1018.18 1018.33 1018.52 1018.71 1018.78 1018.97 1019.11 1019.15 1019.01 1018.81
996.99 997.09 995.74 995.58 995.79 995.95 996.07 996.33 996.67 996.21 996.21 997.54 998.76 999.84 1000.62 1001.71 1003.09 1004.61 1006.18 1007.63 1008.71 1009.64 1010.74 1011.63 1012.40 1013.30 1014.03 1014.71 1015.44 1016.18 1016.80 1017.21 1017.49 1017.77 1017.92 1018.22 1018.54 1018.78 1018.92 1019.21 1019.32 1019.39 1019.62 1019.51
997.14 995.90 995.90 995.31 995.00 995.22 995.50 995.93 996.29 996.49 997.12 997.58 998.38 999.68 1001.05 1002.17 1003.52 1005.23 1006.66 1008.05 1008.98 1009.85 1010.86 1012.07 1012.92 1013.76 1014.41 1015.07 1015.70 1016.32 1016.89 1017.31 1017.67 1017.92 1018.05 1018.39 1018.68 1018.93 1018.97 1019.07 1019.35 1019.60 1019.77 1019.82
997.09 995.78 994.26 994.49 994.79 995.19 995.24 994.80 995.32 996.28 997.33 998.23 999.27 999.50 1000.71 1002.77 1004.28 1005.76 1007.06 1008.17 1009.13 1010.12 1011.21 1012.19 1013.27 1013.99 1014.64 1015.32 1015.93 1016.54 1017.24 1017.75 1018.07 1018.26 1018.46 1018.71 1019.06 1019.32 1019.47 1019.48 1019.59 1019.78 1020.13 1020.38
997.15 995.70 994.35 993.89 994.20 994.39 994.66 994.38 994.42 995.70 996.70 997.86 998.50 998.13 999.89 1002.77 1004.75 1006.26 1007.46 1008.41 1009.32 1010.26 1011.08 1012.46 1013.47 1014.12 1014.82 1015.48 1016.23 1016.96 1017.57 1018.08 1018.39 1018.65 1018.90 1019.19 1019.46 1019.73 1019.92 1019.99 1020.06 1020.25 1020.72 1020.99
996.60 995.68 994.05 993.42 993.62 993.91 993.91 994.32 994.56 995.10 995.95 997.01 998.12 999.31 1000.44 1002.73 1004.62 1005.92 1007.16 1008.62 1009.40 1010.23 1011.62 1012.90 1013.69 1014.33 1014.94 1015.70 1016.63 1017.34 1017.93 1018.37 1018.71 1018.90 1018.95 1019.50 1019.78 1020.05 1020.24 1020.35 1020.39 1020.47 1020.52 1020.51
994.95 994.36 993.98 992.95 993.00 993.74 993.27 993.53 994.46 994.94 995.95 996.96 998.23 999.65 1000.78 1002.68 1004.46 1005.92 1007.24 1008.31 1009.32 1010.45 1011.86 1013.13 1013.89 1014.53 1015.14 1016.14 1016.78 1017.43 1017.92 1018.27 1018.76 1019.06 1019.32 1019.63 1019.84 1020.04 1020.14 1020.26 1020.09 1020.21 1020.23 1020.46
994.56 994.23 993.90 993.36 993.05 992.89 992.99 993.07 994.08 994.65 995.71 996.61 998.13 999.79 1001.09 1002.71 1004.32 1005.63 1007.17 1008.19 1009.24 1010.55 1011.82 1012.88 1013.85 1014.53 1015.19 1016.00 1016.69 1017.18 1017.64 1018.12 1018.61 1018.97 1019.25 1019.40 1019.49 1019.78 1019.96 1020.29 1020.61 1020.75 1020.78 1020.90
993.59 993.84 993.77 993.24 992.87 992.73 992.67 992.91 993.33 994.69 995.70 996.73 998.14 999.54 1000.68 1002.33 1004.10 1005.42 1006.73 1008.00 1009.14 1010.40 1011.60 1012.68 1013.65 1014.31 1015.05 1015.80 1016.43 1016.94 1017.53 1017.97 1018.28 1018.82 1019.09 1019.55 1019.66 1020.48 1021.10 1021.97 1022.05 1021.81 1021.77 1021.67
992.62 992.93 992.65 992.56 992.60 992.88 993.04 993.14 993.80 994.53 995.76 996.94 998.17 999.26 1000.59 1001.97 1003.56 1004.92 1006.30 1007.74 1009.08 1010.22 1011.33 1012.47 1013.34 1014.06 1014.77 1015.66 1016.22 1016.57 1017.04 1017.40 1017.57 1017.99 1018.54 1019.05 1020.04 1021.36 1022.76 1023.02 1023.18 1023.18 1022.97 1022.94
993.99 994.28 992.98 992.23 991.78 991.89 992.74 993.16 993.68 994.31 995.13 996.28 997.89 999.35 1000.69 1001.74 1003.39 1004.94 1006.12 1007.54 1008.69 1009.60 1010.91 1012.06 1012.88 1013.72 1014.68 1015.44 1015.93 1016.28 1016.46 1017.06 1017.41 1017.58 1018.00 1018.71 1019.35 1020.19 1021.47 1023.34 1023.68 1023.85 1023.68 1023.42
995.75 995.25 994.17 992.78 991.67 991.74 992.28 992.96 993.76 994.42 995.51 996.65 997.73 999.04 1000.53 1001.89 1003.45 1004.60 1005.50 1007.12 1008.41 1009.48 1010.67 1011.68 1012.55 1013.40 1014.34 1015.11 1015.78 1016.13 1016.18 1016.97 1017.00 1017.08 1017.53 1018.15 1018.76 1019.36 1019.94 1020.91 1021.60 1022.60 1023.51 1023.29
995.76 995.12 994.26 993.01 992.57 991.81 992.21 993.02 993.98 994.58 995.64 996.91 998.14 999.37 1000.42 1001.60 1003.21 1004.14 1005.28 1006.85 1008.36 1009.20 1010.28 1011.26 1012.12 1012.99 1013.81 1014.42 1015.15 1015.57 1015.76 1016.33 1016.53 1016.97 1017.40 1017.83 1018.40 1018.89 1019.40 1019.86 1020.34 1020.93 1021.70 1022.56
996.13 995.23 994.25 993.58 992.77 992.21 992.21 993.03 993.66 994.78 995.85 996.70 997.82 998.95 1000.32 1001.78 1002.64 1004.05 1005.03 1006.49 1007.47 1008.11 1009.25 1010.40 1011.32 1012.20 1013.25 1013.84 1014.59 1015.09 1015.52 1015.98 1016.27 1016.50 1017.18 1017.73 1018.16 1018.41 1018.81 1019.28 1019.61 1019.88 1020.27 1020.46
995.55 993.94 993.33 993.07 992.50 992.05 992.22 993.02 993.68 995.12 995.76 996.80 997.93 999.18 1000.36 1001.92 1003.17 1004.26 1005.03 1006.47 1007.61 1008.41 1009.09 1009.89 1010.80 1011.91 1012.86 1013.60 1014.12 1014.17 1014.60 1015.56 1016.08 1016.05 1016.63 1017.44 1017.67 1017.72 1017.97 1018.41 1018.69 1019.07 1019.46 1020.42
995.00 994.22 993.26 992.89 992.40 992.59 992.79 993.58 994.53 995.23 996.22 997.49 998.85 999.60 1000.90 1001.19 1001.64 1003.25 1004.42 1006.22 1007.54 1008.47 1009.18 1009.79 1010.72 1011.68 1012.34 1012.74 1013.09 1013.51 1013.93 1014.60 1015.64 1015.45 1015.95 1016.46 1016.89 1017.32 1017.65 1017.81 1018.01 1018.35 1018.69 1019.90
994.78 994.13 993.80 993.41 992.95 993.36 993.50 994.29 994.87 995.61 996.84 997.87 998.54 999.40 999.25 1001.48 1001.76 1002.99 1003.99 1005.74 1006.79 1007.67 1008.57 1009.65 1011.02 1012.04 1012.71 1013.31 1013.67 1013.73 1013.82 1013.99 1014.83 1015.04 1015.64 1016.36 1017.09 1017.10 1017.42 1017.63 1017.70 1018.16 1018.47 1018.68
995.57 995.03 994.80 994.50 994.55 994.18 994.42 995.01 995.36 996.03 997.01 997.96 998.96 999.79 1000.40 1001.68 1002.44 1002.96 1003.85 1005.02 1005.91 1006.88 1008.31 1009.53 1011.00 1011.36 1012.15 1012.84 1013.50 1013.49 1013.94 1014.05 1014.50 1015.25 1015.71 1016.22 1016.52 1016.78 1017.19 1017.62 1017.50 1017.86 1018.15 1018.48
996.26 995.80 995.26 995.08 995.27 995.35 995.38 995.86 996.29 996.81 997.42 998.22 999.11 999.87 1000.63 1001.54 1002.32 1002.88 1004.03 1005.29 1006.45 1007.43 1008.52 1010.34 1010.80 1011.46 1011.77 1012.69 1013.23 1012.62 1013.62 1014.04 1014.29 1015.05 1015.80 1015.90 1016.33 1016.66 1017.03 1017.48 1017.74 1017.76 1017.95 1018.28
997.37 996.58 996.28 996.10 996.24 996.68 996.73 996.68 997.11 997.59 998.11 998.81 999.62 1000.20 1001.05 1001.81 1002.31 1003.66 1004.04 1004.09 1005.87 1007.41 1008.09 1009.13 1010.98 1012.29 1012.37 1011.80 1012.56 1012.26 1012.95 1013.85 1014.10 1014.71 1015.48 1015.63 1015.97 1016.38 1016.72 1017.19 1017.37 1017.71 1017.86 1018.04
998.70 997.88 997.54 997.11 997.32 997.95 997.16 997.54 998.00 998.33 998.97 999.52 1000.11 1000.85 1001.58 1002.21 1002.08 1002.99 1004.06 1005.44 1006.60 1007.88 1007.91 1007.27 1008.82 1009.94 1012.05 1012.88 1012.84 1012.49 1012.78 1013.47 1013.94 1014.53 1015.11 1015.50 1015.86 1016.26 1016.61 1017.06 1017.24 1017.54 1017.75 1017.89
1000.46 999.61 998.56 998.30 998.07 998.03 997.83 998.22 998.74 999.18 999.51 1000.21 1001.10 1001.23 1001.48 1002.35 1003.58 1004.11 1004.73 1006.02 1007.22 1008.40 1007.48 1007.85 1009.47 1010.38 1011.66 1011.50 1012.14 1012.33 1012.62 1013.31 1013.98 1014.55 1015.02 1015.45 1015.60 1016.00 1016.46 1016.78 1017.31 1017.36 1017.60 1018.09
1001.13 1000.41 999.76 998.96 998.72 998.92 998.97 999.37 999.71 999.99 999.45 1001.01 1001.30 1001.24 1001.56 1002.28 1002.92 1004.19 1005.18 1006.19 1007.73 1007.97 1008.38 1009.99 1010.24 1010.28 1010.72 1011.13 1011.65 1011.90 1012.51 1013.37 1013.97 1014.44 1014.82 1015.32 1015.55 1015.89 1016.34 1016.52 1016.84 1017.06 1017.43 1017.64
1001.74 1000.78 1000.16 1000.09 1000.13 999.99 999.84 999.55 999.69 1000.30 1000.74 1000.99 1001.29 1001.40 1001.68 1002.54 1003.48 1004.31 1005.31 1005.50 1007.91 1008.52 1006.81 1008.62 1010.14 1010.49 1010.30 1010.80 1011.24 1011.64 1012.55 1013.30 1014.08 1014.52 1014.78 1015.27 1015.71 1015.84 1016.18 1016.44 1016.71 1017.13 1017.28 1017.27
1001.51 1001.46 1000.36 1000.57 1000.83 1000.71 1000.82 1000.77 1000.93 1001.10 1001.11 1001.28 1002.03 1002.77 1002.86 1003.68 1004.42 1004.40 1005.55 1005.10 1008.07 1007.20 1007.54 1008.60 1009.45 1009.89 1010.14 1010.60 1011.07 1011.67 1012.37 1013.27 1013.73 1014.08 1014.58 1015.27 1015.53 1015.88 1016.06 1016.38 1016.47 1016.54 1016.78 1017.07
Wind_Speed
18 4 8 14 14 12 14 13 11 9 22 21 18 19 17 16 16 16 15 15 13 13 12 11 11 11 10 10 10 11 11 12 11 10 10 10 9 10 11 11 10 10 12 11
20 15 9 11 11 11 10 11 9 11 15 22 20 17 18 17 18 17 16 15 14 13 13 12 12 11 11 12 12 12 13 12 10 11 11 10 10 11 11 11 11 11 12 12
21 20 18 18 16 11 12 9 13 11 15 24 20 15 18 18 17 18 18 17 16 15 13 12 13 12 12 12 12 12 12 11 11 11 12 11 12 11 11 12 11 11 11 12
16 19 28 13 18 17 15 9 13 8 19 20 20 19 18 18 17 17 16 16 16 15 15 14 14 13 13 13 13 12 12 11 11 11 12 12 12 11 11 10 11 11 11 11
13 19 13 20 19 14 11 14 14 13 9 17 16 13 12 12 14 16 16 16 15 15 16 15 14 14 14 13 13 12 12 12 11 11 11 11 11 11 10 10 11 11 11 11
12 21 27 15 16 16 15 15 18 19 14 18 17 14 13 16 18 19 19 17 17 17 16 16 14 14 14 13 12 12 12 11 10 10 11 11 11 10 10 10 10 9 10 11
16 14 17 17 19 13 16 9 14 20 21 21 19 16 22 21 20 19 18 20 19 17 15 15 14 14 14 13 13 12 12 11 11 11 11 11 10 9 9 8 8 9 8 7
18 18 20 20 18 20 14 8 11 19 22 23 18 18 26 25 24 23 23 21 18 16 15 14 14 13 14 14 13 12 12 12 11 10 8 8 9 8 7 7 8 7 7 7
17 15 1 13 19 13 15 11 9 17 19 20 18 21 28 26 25 23 23 20 17 17 17 15 14 13 14 14 14 13 12 12 11 10 9 8 8 8 7 5 6 6 5 6
17 20 23 12 16 21 21 14 13 14 20 23 22 24 26 25 24 22 20 19 18 19 18 16 14 14 14 15 14 14 13 12 11 9 9 8 7 6 6 5 5 5 5 5
19 19 19 23 17 16 15 17 10 15 20 22 23 26 28 25 24 22 21 19 19 18 17 17 16 15 16 15 14 13 12 11 10 9 7 7 7 6 6 7 7 5 5 4
13 17 15 14 23 15 13 14 14 17 20 22 23 26 27 24 23 22 22 21 19 19 19 18 17 16 16 15 14 14 12 10 8 8 8 8 8 8 9 8 6 6 6 5
7 10 11 22 21 24 18 16 17 21 24 26 25 25 27 24 22 21 22 21 20 20 20 19 18 17 16 16 14 14 11 10 8 7 7 8 7 8 8 4 1 0 2 1
13 11 12 15 13 14 17 15 12 15 18 20 23 25 26 24 24 24 22 21 21 21 20 19 18 17 17 16 14 13 11 8 9 7 7 8 7 6 6 7 8 8 7 5
12 13 18 13 15 11 15 14 18 18 21 23 24 24 24 25 23 22 22 22 21 21 20 19 18 18 17 17 16 15 11 10 8 7 7 6 6 6 5 4 3 4 7 5
13 14 16 18 17 15 18 19 19 19 22 22 24 25 25 22 23 22 22 22 22 21 21 19 19 19 18 17 16 13 11 9 8 8 8 7 5 7 6 5 5 5 5 3
11 11 14 17 18 18 21 19 16 18 18 21 20 22 23 24 23 22 22 21 18 18 19 19 18 18 18 17 17 12 10 11 9 8 8 8 8 8 7 6 6 6 6 5
10 11 10 14 14 15 16 15 16 19 18 20 19 20 21 24 25 23 22 21 18 18 18 17 17 18 18 17 16 11 10 10 11 9 9 8 6 6 6 6 7 7 5 8
4 2 5 6 8 11 13 14 15 17 19 20 21 22 25 19 22 22 23 21 19 19 18 18 16 16 15 13 11 9 9 10 10 8 6 6 6 6 6 6 6 6 6 5
6 7 7 9 10 10 12 11 15 15 16 18 20 20 19 19 20 21 21 20 17 12 18 19 20 17 16 14 10 9 8 9 9 8 8 8 8 7 6 4 5 6 5 5
9 8 9 9 8 7 8 10 12 14 16 18 20 19 18 19 19 20 19 15 16 16 17 20 16 12 12 13 11 10 10 10 10 9 8 8 7 7 6 7 7 5 5 4
9 9 9 9 9 8 8 9 8 11 14 15 17 18 19 20 19 17 15 15 15 21 16 15 11 8 5 17 12 11 11 11 10 9 9 8 8 8 7 7 6 5 5 4
10 9 7 8 9 7 11 10 9 11 13 13 14 16 16 13 14 15 14 15 12 12 12 13 18 23 19 11 11 10 12 12 11 10 9 8 9 8 7 7 6 6 5 4
9 10 9 8 8 8 12 9 9 9 11 10 12 14 13 12 10 7 6 12 9 12 13 13 15 19 17 12 11 11 11 11 10 10 10 8 8 8 7 6 6 6 5 4
8 9 10 10 9 8 10 9 10 7 10 11 14 14 14 9 9 10 3 8 15 15 11 11 18 20 14 12 12 11 10 10 10 9 9 9 8 8 7 7 8 6 4 4
9 7 8 11 8 7 6 4 6 6 6 6 3 7 9 9 10 10 11 11 10 10 12 14 13 14 12 12 12 12 12 11 11 10 8 8 8 7 8 8 8 7 7 5
6 7 7 8 8 7 6 6 5 3 2 5 6 5 5 5 7 10 11 15 16 14 11 12 13 13 12 11 10 13 12 11 11 10 8 7 8 8 8 7 6 6 5 4
Wind_Direction
238 237 211 199 199 194 228 263 274 176 156 168 169 166 167 154 148 143 144 143 135 129 125 123 116 112 107 104 100 101 102 91 80 81 77 75 73 69 63 55 48 43 52 44
222 226 221 227 207 206 221 254 264 237 169 168 174 172 155 162 156 157 153 143 135 132 129 124 120 114 111 104 99 96 92 93 91 84 80 77 78 71 71 69 65 63 61 56
219 220 221 230 232 221 226 212 232 195 160 168 168 180 177 170 172 165 156 147 143 139 131 126 121 120 114 108 103 99 99 98 95 92 89 89 89 81 78 74 74 70 64 64
220 217 225 225 226 219 230 229 219 240 159 168 173 187 188 176 172 162 153 145 142 135 129 129 122 116 117 111 108 105 101 102 101 101 104 101 98 91 87 83 73 69 68 66
218 227 206 228 213 222 211 223 204 210 164 178 173 159 159 165 158 155 149 143 141 136 130 129 128 124 120 117 116 114 110 108 110 114 108 103 94 90 87 88 80 73 67 63
208 235 216 207 203 201 221 236 191 203 174 162 160 176 174 168 151 151 146 143 143 138 137 134 133 131 126 122 118 114 116 113 112 109 102 96 91 84 83 83 75 73 61 52
223 223 237 203 220 180 216 222 189 192 186 176 186 215 136 153 151 150 146 148 142 145 138 133 137 134 127 123 114 116 117 118 112 105 101 96 94 90 87 80 84 83 85 71
218 217 234 204 181 199 205 180 187 194 184 189 187 132 144 150 152 152 148 145 150 140 135 139 142 137 132 126 129 127 125 119 115 116 108 105 103 101 97 102 89 86 89 90
211 205 122 223 209 197 228 203 189 189 182 183 158 156 150 152 153 151 151 152 149 141 140 144 147 146 138 138 139 137 136 128 124 123 120 121 113 118 118 100 92 84 86 83
204 212 224 230 219 205 225 207 195 187 175 177 165 159 154 151 153 152 154 153 148 146 149 150 153 155 145 149 147 147 142 137 137 135 130 134 134 120 101 89 83 81 78 76
225 213 215 230 225 229 224 222 216 178 178 174 167 164 159 155 155 155 154 152 152 154 155 156 159 156 155 155 157 152 148 146 144 136 142 136 93 67 83 49 26 74 69 53
215 209 220 213 224 216 218 211 200 174 174 176 173 167 164 156 157 156 156 153 156 158 157 159 162 158 159 158 164 156 157 159 156 146 158 143 136 120 59 62 54 38 43 43
251 338 274 213 220 214 213 205 199 186 180 173 173 168 166 157 157 155 153 156 163 161 159 162 163 160 160 160 166 169 164 156 155 168 155 153 157 155 146 135 107 350 293 13
263 272 270 249 228 224 209 209 190 188 178 178 171 165 162 161 153 160 157 161 159 159 161 165 164 161 162 166 167 173 169 157 170 167 161 160 168 177 166 170 176 163 218 235
247 243 258 290 271 236 202 175 176 173 168 173 170 169 166 160 164 160 153 157 163 161 162 166 167 163 167 169 172 174 174 171 187 169 170 158 168 184 201 173 176 149 145 210
286 263 251 243 254 217 185 180 173 176 176 173 171 171 169 162 154 154 153 159 167 171 167 168 169 164 169 168 174 177 180 166 199 176 159 179 168 202 199 200 193 186 202 171
284 236 216 229 229 197 183 183 176 179 174 170 173 163 158 159 154 157 156 165 174 166 167 167 168 161 169 169 180 178 181 166 211 197 168 181 199 206 197 198 214 189 192 103
278 254 261 233 208 187 176 170 169 168 172 167 161 153 163 164 162 160 157 161 167 167 172 168 163 167 174 177 180 176 183 168 189 204 186 190 195 201 202 204 211 182 205 142
20 158 178 204 177 176 156 167 166 167 167 165 171 174 161 170 157 156 153 163 167 169 171 168 143 161 168 174 186 178 188 174 184 193 185 156 176 197 197 205 200 189 214 191
62 86 117 134 155 151 151 158 160 158 166 164 167 165 164 164 159 156 159 170 171 165 158 150 162 168 169 155 201 183 188 182 173 183 182 185 190 186 195 220 201 195 210 218
37 76 82 88 96 113 134 148 154 162 163 170 172 169 164 158 159 156 153 162 162 142 153 142 169 166 170 160 193 178 181 189 176 177 176 199 167 197 193 191 198 214 207 213
20 40 67 82 94 103 122 130 148 154 160 165 172 167 161 165 159 165 163 156 144 143 148 156 161 182 187 153 190 178 178 186 181 174 182 190 181 198 190 203 211 213 205 197
14 25 50 68 91 111 100 107 131 144 155 167 166 168 168 170 158 159 166 148 154 172 173 154 156 141 148 183 193 183 182 183 185 182 186 190 189 192 196 206 211 208 207 212
28 26 47 78 95 94 90 89 106 124 142 137 161 165 160 161 151 175 131 130 149 176 176 146 135 128 155 178 181 185 184 182 185 182 189 187 185 188 196 192 211 198 210 190
20 51 40 50 61 70 86 94 106 103 108 158 165 160 159 144 160 128 145 147 152 177 147 133 142 149 175 170 183 180 178 183 179 184 185 183 195 191 203 203 200 196 213 231
18 34 60 54 55 46 46 76 89 111 130 124 129 166 154 148 137 141 152 121 184 205 145 148 164 175 178 174 176 172 177 173 166 187 184 189 200 203 206 199 199 200 224 223
31 30 48 57 31 33 42 69 62 54 151 146 141 166 173 165 145 146 154 146 186 180 153 165 163 176 172 165 166 171 172 168 178 177 178 191 196 198 199 200 223 212 199 206